Showing default

KINEIS-5D, 62082

Orbit data source: Space-Track

KINEIS-5D, 62082 is a French payload satellite in SSO that was launched on Mon, 25 Nov 2024 UTC via an ELECTRON launch vehicle from the Rocket Lab Launch Complex (RLLC). Payloads include a variety of satellites, spacecraft, and rockets equipped with specific instruments for various scientific and technological missions. These include communications satellites like Starlink; space stations such as the ISS; scientific satellites like the Hubble; Earth observation satellites from companies like Planet Labs, Umbra, and HawkEye 360; GPS; miniature CubeSats for education and research; and military/defense satellites.

Loading next visibility...
KINEIS-5D details
Identifier
62082, 2024-219B
Orbit
SSO
Last TLE update8 hours ago
Origin
Flag of FRKINEIS (FR)
ManufacturerKINEIS
MissionOperational spacecraft
Bus & MotorCUBESAT 16U, Unknown motor
Mass28 kg wet, 28 kg dry
Launch date (UTC)
2024-11-25 (1 month ago)
Launch vehicle
ELECTRON
Launch site
Rocket Lab Launch Complex (RLLC)
Object type
Payload
Rocket body
Debris
Shape & HBRUnknown
Radar Cross SectionMedium (>0.1 m² and <1 m²)

Expand to show TLE details & history

TLE from 8 hours ago
0 KINEIS-5D
1 62082U 24219B   24361.08166005  .00005763  00000-0  82066-3 0  9994
2 62082  97.9490 159.5899 0000843 287.6615  72.4504 14.77200135  4550
Epoch: 2024-12-26T01:57Z
Definitive object data (Epoch: 2024-12-26T01:57:35.428Z)
Latitude0.00007°
Longitude35.1261°
Altitude641.014 km
Speed7.538 km/s
True Right ascension10h 38m 21s
True Declination0° 00' 00"
Sunlit
Object was in daylight at TLE epoch
Visualization TLE readout
Latitude-44.16001°
Longitude43.20238°
Altitude654.686 km
Speed7.529 km/s
Apparent Right ascension15h 58m 49s
Apparent Declination-74° 22' 11"
Sunlit
Object is in daylight
Visualization observer readout
Local Sidereal Time09:14:19
Azimuth159.452° S
Elevation-41.134°
Doppler factor1
Orbital elements
Apogee altitude635.814 km
Perigee altitude634.631 km
Semi-major axis7,013.36 km
Eccentricity0.0000843
Inclination97.949°
RAAN159.5899°
Arg. of periapsis287.6615°
True anomaly72.45961°
Mean anomaly72.4504°
Eccentric anomaly72.45501°
Mean motion3.69534 °/min
BSTAR0.00082066
Orbital period97.42 mins
Loading maneuver chart data...
Loading historical data...
Loading historical data...
Loading historical data...
Loading historical data...
Loading historical data...
Loading historical data...
Loading historical data...

KINEIS-5D Visibility forecast

Observer location: undefined°, undefined

Span
Click to sort rows by Start time (UTC) header in descending order
Start Az.
Max El. time (UTC)
Max El. Az.
Max El.
End time (UTC)
End Az.
7 mins2024-12-26 10:13:13.428Z134.329° SE2024-12-26 10:16:13.428Z86.508° E30.065°2024-12-26 10:20:13.428Z7.681° NNE
5 mins2024-12-26 11:51:13.428Z232.886° WSW2024-12-26 11:53:13.428Z265.516° W18.065°2024-12-26 11:56:13.428Z310.341° NW
7 mins2024-12-26 23:40:13.428Z14.11° NNE2024-12-26 23:43:13.428Z36.901° NE44.596°2024-12-26 23:47:13.428Z192.101° SSW
|